SCP
0 0 -0 0 0 0 0 0 -0 -0 -0 -0 -0 -0 -0 0 -0 0 0 0 0 0 0 0 -0 -0 0 -0 -0 -0 0 0 -0 -0 -0 -0 -0 -0 -0 -0 -0 -0 -0 -0 -0 -0 0 0 0
0 0 0 0 0 0 0 0 -0 0 -0 -0 -0 0 0 0 0 0 0 0 0 0 0 0 -0 -0 0 0 0 0 0 0 -0 -0 -0 -0 -0 -0 -0 -0 -0 -0 -0 -0 -0 0 0 0 0
0 0 0 0 0 0 0 0 0 0 -0 0 0 -0 0 0 0 0 -0 -0 0 0 0 -0 -0 -0 0 0 0 -0 -0 0 0 -0 -0 -0 -0 -0 -0 -0 -0 -0 -0 -0 0 0 0 0 0
0 0 0 0 0 0 0 0 0 0 0 0 0 -0 0 0 0 0 -0 -0 0 0 0 0 0 -0 0 0 0 0 -0 -0 -0 -0 -0 -0 -0 -0 -0 -0 -0 -0 -0 -0 0 0 0 0 0
0 0 0 0 0 0 0 0 0 0 0 0 0 0 0 0 -0 -0 -0 -0 -0 0 0 0 -0 -0 -0 -0 -0 -0 -0 -0 -0 -0 -0 -0 -0 -0 -0 -0 -0 -0 -0 -0 0 0 0 0 0
0 0 0 0 0 0 0 0 0 0 0 0 0 0 0 0 -0 0 -0 -0 -0 -0 0 0 -0 -0 -0 -0 -0 -0 -0 -0 -0 -0 -0 -0 -0 -0 -0 -0 -0 -0 -0 -0 0 0 0 0 0
0 0 0 0 0 0 0 0 0 0 0 0 0 0 0 0 0 0 -0 -0 -0 -0 0 0 -0 -0 -0 -0 -0 -0 -0 -0 -0 -0 -0 -0 -0 -0 -0 -0 -0 -0 -0 -0 -0 0 0 0 0
0 0 0 0 0 0 0 0 0 0 0 0 0 0 0 0 0 0 -0 -0 -0 -0 -0 -0 -0 -0 -0 -0 -0 -0 -0 -0 -0 -0 -0 -0 -0 -0 -0 -0 -0 -0 -0 -0 -0 -0 0 0 0
0 0 0 0 0 0 0 0 0 0 0 0 0 0 0 -0 0 0 -0 -0 -0 -0 -0 -0 -0 -0 0 -0 -0 -0 -0 -0 -0 -0 -0 -0 -0 -0 -0 -0 -0 -0 -0 -0 -0 0 0 0 0
0 0 0 0 0 0 0 0 0 0 0 0 0 0 0 0 0 0 -0 -0 -0 -0 -0 -0 0 -0 0 0 0 0 -0 0 -0 -0 -0 -0 -0 -0 -0 -0 -0 -0 -0 -0 0 0 0 0 0
0 0 0 0 0 0 0 0 0 0 0 0 0 0 0 0 0 0 0 0 -0 -0 -0 -0 -0 -0 0 0 0 0 0 0 0 -0 0 -0 0 0 0 -0 -0 0 0 0 0 0 0 0 0
0 0 0 0 0 0 0 0 0 0 0 0 0 0 0 0 0 0 0 0 0 -0 -0 0 -0 -0 0 0 0 0 0 0 0 0 -0 0 0 0 0 0 0 0 0 0 0 0 0 0 0
0 0 0 0 0 0 0 0 0 0 0 0 0 0 0 0 0 0 0 0 0 0 0 0 0 0 0 0 0 0 0 0 0 0 0 0 0 0 0 0 0 0 0 0 0 0 0 0 0
0 0 0 0 0 0 0 0 0 0 0 0 0 0 0 0 0 0 0 0 0 0 0 0 0 0 0 0 0 0 0 0 0 0 0 0 0 0 0 0 0 0 0 0 0 0 0 0 0
0 0 0 0 0 0 0 0 0 0 0 0 0 0 0 0 0 0 0 0 0 0 0 0 0 0 0 0 0 0 0 0 0 0 0 0 0 0 0 0 0 0 0 0 0 0 0 0 0
0 0 0 0 0 0 0 0 0 0 0 0 0 0 0 0 0 0 0 0 0 0 0 0 0 0 0 0 0 0 0 0 0 0 0 0 0 0 0 0 0 0 0 0 0 0 0 0 0
0 0 0 0 0 0 0 0 0 0 0 0 0 0 0 0 0 0 0 0 0 0 0 0 0 0 0 0 0 0 0 0 0 0 0 0 0 0 0 0 0 0 0 0 0 0 0 0 0
0 0 0 0 0 0 0 0 0 0 0 0 0 0 0 0 0 0 0 0 0 0 0 0 0 0 0 0 0 0 0 0 0 0 0 0 0 0 0 0 0 0 0 0 0 0 0 0 0
0 0 0 0 0 0 0 0 0 0 0 0 0 0 0 0 0 0 0 0 0 0 0 0 0 0 0 0 0 0 0 0 0 0 0 0 0 0 0 0 0 0 0 0 0 0 0 0 0
0 0 0 0 0 0 0 0 0 0 0 0 0 0 0 0 0 0 0 0 0 0 0 0 0 0 0 0 0 0 0 0 0 0 0 0 0 0 0 0 0 0 0 0 0 0 0 0 0
0 0 0 0 0 0 0 0 0 0 0 0 0 0 0 0 0 0 0 0 0 0 0 0 0 0 0 0 0 0 0 0 0 0 0 0 0 0 0 0 0 0 0 0 0 0 0 0 0
0 0 0 0 0 0 0 0 0 0 0 0 0 0 0 0 0 0 0 0 0 0 0 0 0 0 0 0 0 0 0 0 0 0 0 0 0 0 0 0 0 0 0 0 0 0 0 0 0
0 0 0 0 0 0 0 0 -0 0 0 0 0 0 0 0 0 0 0 0 0 0 0 0 0 0 0 0 0 0 0 0 0 0 0 0 0 0 0 0 0 0 0 0 0 0 0 0 0
0 0 -0 0 0 0 0 0 0 0 0 0 0 0 0 0 0 0 0 0 0 0 0 0 0 0 0 0 0 0 0 0 0 0 0 0 0 0 0 0 0 0 0 0 0 0 0 0 0
0 0 0 0 0 0 0 0 0 0 0 0 0 0 0 0 0 0 0 0 0 0 0 0 0 0 0 0 0 0 0 0 0 0 0 0 0 0 0 0 0 0 0 0 0 0 0 0 0
0 0 0 0 0 0 0 0 0 0 -0 0 0 0 0 0 0 0 0 0 0 0 0 0 0 0 0 0 0 0 0 0 0 0 0 0 0 0 0 0 0 0 0 0 0 0 0 0 0
0 0 0 0 0 0 0 0 0 0 0 0 0 0 0 0 0 0 0 0 0 0 0 0 0 0 0 0 0 0 0 0 0 0 0 0 0 0 0 0 0 0 0 0 0 0 0 0 0
0 0 0 0 0 0 0 0 0 0 0 0 0 0 0 0 0 0 0 0 0 0 0 0 0 0 0 0 0 0 0 0 0 0 0 0 0 0 0 0 0 0 0 0 0 0 0 0 0
0 0 0 0 0 0 0 0 0 0 0 0 0 0 0 0 0 0 0 0 0 0 0 0 0 0 0 0 0 0 0 0 0 0 0 0 0 0 0 0 0 0 0 0 0 0 0 0 0
0 0 0 0 0 0 0 0 0 0 0 0 0 0 0 0 0 0 0 0 0 0 0 0 0 0 0 0 0 0 0 0 0 0 0 0 0 0 0 0 0 0 0 0 0 0 0 0 0
Wind_Speed_500mb
23 26 31 15 7 10 6 1 8 9 8 18 26 21 19 16 6 9 33 28 21 25 31 33 28 28 32 32 31 32 28 22 24 28 29 27 23 23 24 26 33 36 36 35 36 40 41 43 44
20 24 18 6 7 6 10 5 14 8 23 27 27 15 15 7 27 41 41 28 24 30 33 32 28 28 32 34 28 27 24 20 21 24 23 26 26 22 25 26 29 34 34 34 36 38 41 45 38
19 18 11 4 5 4 4 7 13 24 26 15 10 17 8 9 36 44 33 33 33 34 33 32 29 27 29 30 27 21 19 20 21 23 22 25 30 25 20 22 25 30 32 34 35 37 38 37 35
12 4 4 4 6 9 7 12 34 18 15 14 25 16 14 9 40 35 37 28 29 34 33 29 27 26 29 29 27 26 23 26 28 27 24 29 34 23 20 23 25 29 30 32 34 35 35 34 34
7 3 3 4 8 5 13 31 25 11 16 11 11 8 13 32 20 43 39 30 28 32 32 31 27 25 26 25 26 27 27 29 27 22 21 31 33 23 19 21 24 27 29 30 31 32 32 31 32
8 3 3 6 12 2 7 25 28 21 22 20 24 20 14 23 27 54 43 32 25 31 33 31 28 26 26 26 24 24 24 25 25 23 22 31 24 19 21 23 24 26 27 28 28 29 30 29 28
5 6 8 8 9 6 11 20 17 23 30 18 25 11 26 36 37 53 42 32 28 30 31 31 30 27 26 25 24 25 27 25 25 23 22 23 20 20 20 21 22 24 25 26 26 27 28 28 27
8 5 5 8 9 11 17 23 15 35 17 20 17 14 17 51 56 48 40 32 28 31 32 31 30 28 27 23 24 23 24 25 22 22 22 22 22 22 22 20 22 22 23 24 25 26 28 27 25
10 0 8 12 9 8 27 9 15 12 35 19 16 16 14 54 65 56 48 40 35 33 35 33 32 30 27 23 25 25 23 22 21 21 19 19 20 22 21 21 20 20 20 20 21 22 22 22 21
10 9 12 10 6 10 23 16 23 14 28 12 21 16 23 54 72 68 61 55 46 41 40 37 35 33 31 27 25 24 23 21 19 18 16 19 18 19 18 18 18 17 17 18 16 15 13 13 14
8 12 28 26 5 1 22 15 21 22 8 27 40 37 42 52 74 70 65 58 52 43 41 40 38 35 33 31 29 26 24 23 22 19 13 16 17 15 17 16 14 13 13 13 13 11 11 11 10
10 35 32 22 21 11 9 11 16 29 15 35 38 39 48 52 78 74 69 62 56 50 46 42 40 36 34 33 32 29 27 25 23 21 16 13 12 14 14 14 13 12 11 10 10 9 8 8 7
30 24 52 55 27 24 14 17 13 31 32 13 43 50 47 52 71 76 69 61 59 56 55 51 48 45 39 37 36 33 29 25 24 24 20 20 17 16 16 14 13 11 10 8 8 7 6 5 5
21 64 39 41 37 22 17 14 15 30 27 33 30 59 56 53 57 76 76 72 67 60 59 56 59 53 47 45 42 36 32 29 28 27 24 22 20 17 13 12 12 12 11 11 10 9 7 5 4
64 37 35 40 31 15 20 10 22 46 40 38 46 57 63 54 53 65 70 79 75 70 63 59 65 62 58 51 44 41 36 34 33 29 28 27 25 21 19 19 17 15 15 14 12 12 10 8 7
19 31 28 14 32 16 32 19 38 53 40 37 51 62 63 58 56 56 61 65 75 78 72 63 60 69 63 56 50 46 42 38 34 33 33 32 31 27 25 25 24 22 20 18 16 14 13 12 9
12 29 13 11 37 11 13 14 38 43 62 60 56 66 68 64 60 56 58 60 66 73 73 67 61 62 65 57 55 51 49 45 41 38 37 36 35 33 32 30 28 26 22 21 18 15 12 13 10
24 25 13 21 16 12 16 22 21 20 46 66 64 68 70 72 72 67 65 59 60 72 76 73 68 64 64 61 55 57 53 51 47 45 43 40 40 39 39 37 33 30 25 23 22 16 11 7 11
37 45 30 20 16 23 35 30 34 50 22 47 73 69 72 77 70 71 65 63 61 64 71 85 78 74 67 68 66 63 63 57 55 51 46 46 46 45 44 43 39 35 29 24 18 18 11 10 5
29 53 47 14 37 27 20 34 40 29 32 57 68 66 69 78 81 74 69 70 73 71 72 86 85 77 72 71 70 67 62 58 54 51 52 50 46 42 44 47 44 38 32 31 27 22 21 18 15
26 49 39 30 10 6 8 13 26 18 53 57 70 72 75 78 86 84 81 81 82 79 75 76 88 82 75 75 73 68 64 62 62 60 57 56 53 44 42 41 45 41 37 34 31 29 29 25 26
31 44 40 48 29 19 15 11 17 30 30 37 61 83 82 75 81 84 80 83 86 84 78 71 75 80 77 77 77 75 72 72 67 60 57 55 53 51 46 41 43 42 42 39 36 34 34 36 37
43 35 35 45 39 15 12 1 14 14 27 34 46 69 89 85 82 84 82 81 82 83 82 74 73 74 75 76 74 74 74 70 63 55 58 59 55 54 51 46 46 47 48 45 45 44 43 42 43
10 7 13 14 14 21 18 20 10 13 24 18 40 64 90 86 78 82 80 77 81 81 80 77 77 78 76 73 72 72 72 70 68 64 63 63 59 56 54 54 52 52 51 50 52 51 51 49 47
17 22 0 6 10 11 19 13 23 15 14 15 28 60 80 84 81 74 83 83 80 81 78 79 81 81 79 78 75 74 73 70 69 66 63 55 55 57 57 55 54 57 56 50 49 54 54 49 46
46 26 12 13 11 6 6 20 13 28 48 28 19 38 68 76 82 85 81 82 82 80 76 75 80 83 82 82 81 80 78 77 73 70 69 66 60 58 53 50 51 51 50 51 46 48 48 41 42
15 22 24 6 8 8 11 10 18 17 13 14 20 35 36 30 58 87 80 86 83 80 78 75 77 80 81 81 84 85 83 82 80 75 71 67 65 62 59 53 54 53 53 54 54 54 53 52 48
15 18 11 13 9 6 7 7 10 8 18 16 14 27 36 33 32 34 59 80 79 77 75 75 75 75 75 78 81 82 84 84 81 74 73 66 67 64 62 64 61 62 59 60 61 61 62 61 56
16 16 12 11 8 10 6 11 12 17 14 20 16 20 21 26 35 39 42 46 59 72 71 68 67 70 74 77 80 82 84 81 77 75 69 66 66 64 65 64 62 61 58 54 62 69 67 68 66
6 18 20 7 9 3 6 9 6 13 13 21 22 22 20 21 28 39 44 44 45 52 59 61 63 67 70 74 79 81 78 73 71 71 71 67 66 66 68 64 63 61 60 60 61 65 66 71 73
Wind_Direction_500mb
323 326 324 328 36 66 282 207 114 95 47 65 72 83 105 67 54 146 153 177 162 147 140 132 132 132 138 120 119 116 115 122 106 110 112 105 95 85 84 83 89 87 84 84 86 87 89 93 93
320 324 339 319 81 26 283 186 118 113 115 94 77 105 46 80 109 135 151 169 165 147 140 136 135 135 147 143 135 134 134 119 110 112 113 113 103 102 93 86 93 89 83 83 88 89 92 99 95
320 325 331 78 120 174 198 88 127 112 110 99 102 71 59 93 141 143 164 163 155 144 141 134 133 131 143 152 152 152 151 141 124 120 119 119 119 108 105 100 94 85 85 85 86 91 96 103 98
330 3 282 75 273 285 93 176 126 111 110 94 119 73 79 153 141 153 160 175 149 145 145 136 134 133 141 146 156 161 158 145 134 120 125 120 124 119 111 105 86 87 88 89 91 94 99 102 100
303 271 32 303 279 231 117 147 135 114 130 134 105 109 87 158 148 155 169 182 158 152 151 143 139 136 141 140 143 137 132 134 132 134 122 127 126 135 124 104 94 94 92 92 93 94 100 104 96
272 218 126 241 261 294 127 141 146 140 155 150 118 113 129 148 164 158 174 183 169 161 156 153 147 144 142 141 137 130 130 129 130 135 128 136 137 119 110 98 99 96 93 93 94 94 99 103 99
225 91 228 255 262 230 200 161 169 146 143 163 154 103 146 167 171 160 178 186 175 170 165 161 157 151 150 148 141 134 132 130 128 131 119 122 121 119 114 107 102 97 97 98 99 99 102 106 106
242 128 278 245 258 261 176 152 189 155 176 172 163 157 169 181 168 162 181 188 184 178 174 169 166 162 160 157 146 138 134 131 131 133 133 133 129 128 122 114 106 101 102 106 107 107 109 110 108
222 120 234 248 217 186 167 139 141 172 148 150 162 170 190 173 166 165 179 187 194 186 182 178 175 173 171 160 154 151 148 144 140 142 146 144 137 135 131 124 116 109 107 107 110 110 109 113 114
211 190 237 255 295 175 181 157 161 138 146 120 162 171 163 169 171 171 183 189 200 191 185 185 184 182 180 174 166 161 160 157 153 151 155 147 141 144 138 134 128 123 118 114 113 112 114 112 109
231 221 230 261 230 154 169 165 178 149 204 180 187 174 173 174 179 177 189 200 202 200 195 188 192 187 187 185 180 177 175 171 170 172 178 156 146 154 152 151 148 141 132 122 116 116 113 103 100
250 229 232 246 224 184 175 155 180 188 190 211 216 207 188 184 187 188 193 200 204 205 202 196 196 197 194 191 190 190 190 184 182 187 196 182 185 171 168 168 164 164 157 151 135 121 118 124 130
243 249 226 236 217 215 192 213 201 217 213 177 205 202 202 198 195 193 195 204 206 209 204 207 198 201 205 200 199 196 199 197 194 196 203 199 206 192 191 182 185 185 183 179 172 154 149 148 151
272 239 241 229 200 206 190 223 198 224 210 218 199 202 207 206 201 198 198 201 203 214 213 207 208 206 209 208 205 205 205 206 207 207 207 212 216 219 210 208 208 209 207 209 209 203 200 196 186
269 272 237 239 197 187 196 276 222 221 205 197 205 197 205 210 207 207 209 206 208 216 218 214 213 211 210 213 206 211 213 212 216 214 214 219 223 224 225 226 227 227 225 224 222 224 228 225 219
278 251 227 204 173 209 164 242 240 222 207 209 202 199 206 213 219 216 214 213 210 214 219 220 213 216 219 217 215 214 218 221 223 222 222 225 229 232 233 234 234 234 234 231 229 232 233 238 236
248 232 201 199 186 135 166 234 248 233 220 220 207 201 205 214 218 220 220 218 213 212 219 222 221 221 220 219 220 219 222 226 229 230 230 228 233 237 240 240 241 242 238 238 231 233 249 260 250
278 246 220 202 206 165 200 241 255 224 220 223 221 211 207 213 220 222 219 218 216 215 219 223 224 224 221 219 218 219 219 227 231 233 236 233 234 237 240 241 241 243 242 238 237 238 257 281 256
268 281 230 204 205 190 214 217 239 244 237 224 220 215 212 214 225 223 221 219 221 220 216 222 221 223 223 218 219 220 221 223 229 236 238 240 240 235 237 238 239 243 247 238 223 222 223 250 253
236 274 250 223 218 195 210 230 241 213 234 232 214 217 219 216 217 215 218 221 225 224 219 215 220 223 223 223 222 226 230 231 239 242 241 243 241 238 235 237 238 245 244 222 218 226 233 243 249
227 255 261 230 164 224 133 256 249 227 228 231 227 226 223 219 217 213 215 221 222 226 224 216 221 225 223 225 224 225 229 231 234 235 235 233 241 247 243 239 238 243 232 227 222 237 235 244 250
223 235 269 269 171 202 160 265 241 222 218 218 221 225 225 218 217 216 219 218 221 226 227 223 224 223 221 223 224 227 230 228 233 235 238 238 241 245 245 241 240 238 233 232 230 239 249 249 252
226 219 262 255 213 133 193 191 258 214 221 221 219 221 225 220 217 217 221 224 224 223 225 223 223 221 219 220 225 228 232 236 241 242 241 243 243 245 246 245 241 238 238 237 235 236 243 252 253
98 197 327 273 217 204 182 177 235 207 210 216 220 216 220 218 217 221 225 229 227 224 224 224 221 221 222 224 227 231 234 237 240 241 239 238 240 242 246 247 245 243 242 242 242 241 242 247 255
150 110 134 229 241 218 167 178 236 224 233 217 209 215 222 220 216 217 219 221 226 225 224 224 223 222 222 224 229 235 238 239 243 244 246 246 243 242 243 245 245 242 242 245 247 243 245 247 251
180 157 148 242 217 168 118 218 237 223 241 239 227 227 227 220 217 219 221 222 226 229 227 226 225 225 223 226 232 236 241 244 244 246 248 251 253 253 250 247 247 245 244 243 243 239 236 243 253
167 189 162 279 255 98 209 279 302 248 247 207 191 183 187 201 221 224 225 225 227 232 232 231 230 229 231 232 233 237 241 244 247 249 250 254 256 255 251 250 249 247 245 241 238 240 241 242 246
169 124 179 211 207 224 276 268 227 210 218 208 208 207 201 195 190 196 218 223 224 226 230 229 232 234 235 234 236 239 242 245 248 251 253 249 247 247 248 245 244 248 246 241 236 245 245 245 247
160 143 193 254 194 159 146 254 212 212 192 180 185 194 199 203 205 201 197 203 210 214 218 222 226 230 234 235 237 239 240 242 246 247 244 240 242 243 242 243 245 247 246 247 245 245 243 245 245
198 148 176 193 238 270 144 258 259 160 147 149 166 177 190 201 202 196 198 201 206 216 224 228 228 229 231 234 235 237 240 240 241 243 242 242 240 238 241 244 245 247 246 250 248 252 246 244 242
Wind_Speed_850mb
23 26 31 15 7 10 6 1 8 9 8 18 26 21 19 16 6 9 33 28 21 25 31 33 28 28 32 32 31 32 28 22 24 28 29 27 23 23 24 26 33 36 36 35 36 40 41 43 44
20 24 18 6 7 6 10 5 14 8 23 27 27 15 15 7 27 41 41 28 24 30 33 32 28 28 32 34 28 27 24 20 21 24 23 26 26 22 25 26 29 34 34 34 36 38 41 45 38
19 18 11 4 5 4 4 7 13 24 26 15 10 17 8 9 36 44 33 33 33 34 33 32 29 27 29 30 27 21 19 20 21 23 22 25 30 25 20 22 25 30 32 34 35 37 38 37 35
12 4 4 4 6 9 7 12 34 18 15 14 25 16 14 9 40 35 37 28 29 34 33 29 27 26 29 29 27 26 23 26 28 27 24 29 34 23 20 23 25 29 30 32 34 35 35 34 34
7 3 3 4 8 5 13 31 25 11 16 11 11 8 13 32 20 43 39 30 28 32 32 31 27 25 26 25 26 27 27 29 27 22 21 31 33 23 19 21 24 27 29 30 31 32 32 31 32
8 3 3 6 12 2 7 25 28 21 22 20 24 20 14 23 27 54 43 32 25 31 33 31 28 26 26 26 24 24 24 25 25 23 22 31 24 19 21 23 24 26 27 28 28 29 30 29 28
5 6 8 8 9 6 11 20 17 23 30 18 25 11 26 36 37 53 42 32 28 30 31 31 30 27 26 25 24 25 27 25 25 23 22 23 20 20 20 21 22 24 25 26 26 27 28 28 27
8 5 5 8 9 11 17 23 15 35 17 20 17 14 17 51 56 48 40 32 28 31 32 31 30 28 27 23 24 23 24 25 22 22 22 22 22 22 22 20 22 22 23 24 25 26 28 27 25
10 0 8 12 9 8 27 9 15 12 35 19 16 16 14 54 65 56 48 40 35 33 35 33 32 30 27 23 25 25 23 22 21 21 19 19 20 22 21 21 20 20 20 20 21 22 22 22 21
10 9 12 10 6 10 23 16 23 14 28 12 21 16 23 54 72 68 61 55 46 41 40 37 35 33 31 27 25 24 23 21 19 18 16 19 18 19 18 18 18 17 17 18 16 15 13 13 14
8 12 28 26 5 1 22 15 21 22 8 27 40 37 42 52 74 70 65 58 52 43 41 40 38 35 33 31 29 26 24 23 22 19 13 16 17 15 17 16 14 13 13 13 13 11 11 11 10
10 35 32 22 21 11 9 11 16 29 15 35 38 39 48 52 78 74 69 62 56 50 46 42 40 36 34 33 32 29 27 25 23 21 16 13 12 14 14 14 13 12 11 10 10 9 8 8 7
30 24 52 55 27 24 14 17 13 31 32 13 43 50 47 52 71 76 69 61 59 56 55 51 48 45 39 37 36 33 29 25 24 24 20 20 17 16 16 14 13 11 10 8 8 7 6 5 5
21 64 39 41 37 22 17 14 15 30 27 33 30 59 56 53 57 76 76 72 67 60 59 56 59 53 47 45 42 36 32 29 28 27 24 22 20 17 13 12 12 12 11 11 10 9 7 5 4
64 37 35 40 31 15 20 10 22 46 40 38 46 57 63 54 53 65 70 79 75 70 63 59 65 62 58 51 44 41 36 34 33 29 28 27 25 21 19 19 17 15 15 14 12 12 10 8 7
19 31 28 14 32 16 32 19 38 53 40 37 51 62 63 58 56 56 61 65 75 78 72 63 60 69 63 56 50 46 42 38 34 33 33 32 31 27 25 25 24 22 20 18 16 14 13 12 9
12 29 13 11 37 11 13 14 38 43 62 60 56 66 68 64 60 56 58 60 66 73 73 67 61 62 65 57 55 51 49 45 41 38 37 36 35 33 32 30 28 26 22 21 18 15 12 13 10
24 25 13 21 16 12 16 22 21 20 46 66 64 68 70 72 72 67 65 59 60 72 76 73 68 64 64 61 55 57 53 51 47 45 43 40 40 39 39 37 33 30 25 23 22 16 11 7 11
37 45 30 20 16 23 35 30 34 50 22 47 73 69 72 77 70 71 65 63 61 64 71 85 78 74 67 68 66 63 63 57 55 51 46 46 46 45 44 43 39 35 29 24 18 18 11 10 5
29 53 47 14 37 27 20 34 40 29 32 57 68 66 69 78 81 74 69 70 73 71 72 86 85 77 72 71 70 67 62 58 54 51 52 50 46 42 44 47 44 38 32 31 27 22 21 18 15
26 49 39 30 10 6 8 13 26 18 53 57 70 72 75 78 86 84 81 81 82 79 75 76 88 82 75 75 73 68 64 62 62 60 57 56 53 44 42 41 45 41 37 34 31 29 29 25 26
31 44 40 48 29 19 15 11 17 30 30 37 61 83 82 75 81 84 80 83 86 84 78 71 75 80 77 77 77 75 72 72 67 60 57 55 53 51 46 41 43 42 42 39 36 34 34 36 37
43 35 35 45 39 15 12 1 14 14 27 34 46 69 89 85 82 84 82 81 82 83 82 74 73 74 75 76 74 74 74 70 63 55 58 59 55 54 51 46 46 47 48 45 45 44 43 42 43
10 7 13 14 14 21 18 20 10 13 24 18 40 64 90 86 78 82 80 77 81 81 80 77 77 78 76 73 72 72 72 70 68 64 63 63 59 56 54 54 52 52 51 50 52 51 51 49 47
17 22 0 6 10 11 19 13 23 15 14 15 28 60 80 84 81 74 83 83 80 81 78 79 81 81 79 78 75 74 73 70 69 66 63 55 55 57 57 55 54 57 56 50 49 54 54 49 46
46 26 12 13 11 6 6 20 13 28 48 28 19 38 68 76 82 85 81 82 82 80 76 75 80 83 82 82 81 80 78 77 73 70 69 66 60 58 53 50 51 51 50 51 46 48 48 41 42
15 22 24 6 8 8 11 10 18 17 13 14 20 35 36 30 58 87 80 86 83 80 78 75 77 80 81 81 84 85 83 82 80 75 71 67 65 62 59 53 54 53 53 54 54 54 53 52 48
15 18 11 13 9 6 7 7 10 8 18 16 14 27 36 33 32 34 59 80 79 77 75 75 75 75 75 78 81 82 84 84 81 74 73 66 67 64 62 64 61 62 59 60 61 61 62 61 56
16 16 12 11 8 10 6 11 12 17 14 20 16 20 21 26 35 39 42 46 59 72 71 68 67 70 74 77 80 82 84 81 77 75 69 66 66 64 65 64 62 61 58 54 62 69 67 68 66
6 18 20 7 9 3 6 9 6 13 13 21 22 22 20 21 28 39 44 44 45 52 59 61 63 67 70 74 79 81 78 73 71 71 71 67 66 66 68 64 63 61 60 60 61 65 66 71 73
Wind_Direction_850mb
323 326 324 328 36 66 282 207 114 95 47 65 72 83 105 67 54 146 153 177 162 147 140 132 132 132 138 120 119 116 115 122 106 110 112 105 95 85 84 83 89 87 84 84 86 87 89 93 93
320 324 339 319 81 26 283 186 118 113 115 94 77 105 46 80 109 135 151 169 165 147 140 136 135 135 147 143 135 134 134 119 110 112 113 113 103 102 93 86 93 89 83 83 88 89 92 99 95
320 325 331 78 120 174 198 88 127 112 110 99 102 71 59 93 141 143 164 163 155 144 141 134 133 131 143 152 152 152 151 141 124 120 119 119 119 108 105 100 94 85 85 85 86 91 96 103 98
330 3 282 75 273 285 93 176 126 111 110 94 119 73 79 153 141 153 160 175 149 145 145 136 134 133 141 146 156 161 158 145 134 120 125 120 124 119 111 105 86 87 88 89 91 94 99 102 100
303 271 32 303 279 231 117 147 135 114 130 134 105 109 87 158 148 155 169 182 158 152 151 143 139 136 141 140 143 137 132 134 132 134 122 127 126 135 124 104 94 94 92 92 93 94 100 104 96
272 218 126 241 261 294 127 141 146 140 155 150 118 113 129 148 164 158 174 183 169 161 156 153 147 144 142 141 137 130 130 129 130 135 128 136 137 119 110 98 99 96 93 93 94 94 99 103 99
225 91 228 255 262 230 200 161 169 146 143 163 154 103 146 167 171 160 178 186 175 170 165 161 157 151 150 148 141 134 132 130 128 131 119 122 121 119 114 107 102 97 97 98 99 99 102 106 106
242 128 278 245 258 261 176 152 189 155 176 172 163 157 169 181 168 162 181 188 184 178 174 169 166 162 160 157 146 138 134 131 131 133 133 133 129 128 122 114 106 101 102 106 107 107 109 110 108
222 120 234 248 217 186 167 139 141 172 148 150 162 170 190 173 166 165 179 187 194 186 182 178 175 173 171 160 154 151 148 144 140 142 146 144 137 135 131 124 116 109 107 107 110 110 109 113 114
211 190 237 255 295 175 181 157 161 138 146 120 162 171 163 169 171 171 183 189 200 191 185 185 184 182 180 174 166 161 160 157 153 151 155 147 141 144 138 134 128 123 118 114 113 112 114 112 109
231 221 230 261 230 154 169 165 178 149 204 180 187 174 173 174 179 177 189 200 202 200 195 188 192 187 187 185 180 177 175 171 170 172 178 156 146 154 152 151 148 141 132 122 116 116 113 103 100
250 229 232 246 224 184 175 155 180 188 190 211 216 207 188 184 187 188 193 200 204 205 202 196 196 197 194 191 190 190 190 184 182 187 196 182 185 171 168 168 164 164 157 151 135 121 118 124 130
243 249 226 236 217 215 192 213 201 217 213 177 205 202 202 198 195 193 195 204 206 209 204 207 198 201 205 200 199 196 199 197 194 196 203 199 206 192 191 182 185 185 183 179 172 154 149 148 151
272 239 241 229 200 206 190 223 198 224 210 218 199 202 207 206 201 198 198 201 203 214 213 207 208 206 209 208 205 205 205 206 207 207 207 212 216 219 210 208 208 209 207 209 209 203 200 196 186
269 272 237 239 197 187 196 276 222 221 205 197 205 197 205 210 207 207 209 206 208 216 218 214 213 211 210 213 206 211 213 212 216 214 214 219 223 224 225 226 227 227 225 224 222 224 228 225 219
278 251 227 204 173 209 164 242 240 222 207 209 202 199 206 213 219 216 214 213 210 214 219 220 213 216 219 217 215 214 218 221 223 222 222 225 229 232 233 234 234 234 234 231 229 232 233 238 236
248 232 201 199 186 135 166 234 248 233 220 220 207 201 205 214 218 220 220 218 213 212 219 222 221 221 220 219 220 219 222 226 229 230 230 228 233 237 240 240 241 242 238 238 231 233 249 260 250
278 246 220 202 206 165 200 241 255 224 220 223 221 211 207 213 220 222 219 218 216 215 219 223 224 224 221 219 218 219 219 227 231 233 236 233 234 237 240 241 241 243 242 238 237 238 257 281 256
268 281 230 204 205 190 214 217 239 244 237 224 220 215 212 214 225 223 221 219 221 220 216 222 221 223 223 218 219 220 221 223 229 236 238 240 240 235 237 238 239 243 247 238 223 222 223 250 253
236 274 250 223 218 195 210 230 241 213 234 232 214 217 219 216 217 215 218 221 225 224 219 215 220 223 223 223 222 226 230 231 239 242 241 243 241 238 235 237 238 245 244 222 218 226 233 243 249
227 255 261 230 164 224 133 256 249 227 228 231 227 226 223 219 217 213 215 221 222 226 224 216 221 225 223 225 224 225 229 231 234 235 235 233 241 247 243 239 238 243 232 227 222 237 235 244 250
223 235 269 269 171 202 160 265 241 222 218 218 221 225 225 218 217 216 219 218 221 226 227 223 224 223 221 223 224 227 230 228 233 235 238 238 241 245 245 241 240 238 233 232 230 239 249 249 252
226 219 262 255 213 133 193 191 258 214 221 221 219 221 225 220 217 217 221 224 224 223 225 223 223 221 219 220 225 228 232 236 241 242 241 243 243 245 246 245 241 238 238 237 235 236 243 252 253
98 197 327 273 217 204 182 177 235 207 210 216 220 216 220 218 217 221 225 229 227 224 224 224 221 221 222 224 227 231 234 237 240 241 239 238 240 242 246 247 245 243 242 242 242 241 242 247 255
150 110 134 229 241 218 167 178 236 224 233 217 209 215 222 220 216 217 219 221 226 225 224 224 223 222 222 224 229 235 238 239 243 244 246 246 243 242 243 245 245 242 242 245 247 243 245 247 251
180 157 148 242 217 168 118 218 237 223 241 239 227 227 227 220 217 219 221 222 226 229 227 226 225 225 223 226 232 236 241 244 244 246 248 251 253 253 250 247 247 245 244 243 243 239 236 243 253
167 189 162 279 255 98 209 279 302 248 247 207 191 183 187 201 221 224 225 225 227 232 232 231 230 229 231 232 233 237 241 244 247 249 250 254 256 255 251 250 249 247 245 241 238 240 241 242 246
169 124 179 211 207 224 276 268 227 210 218 208 208 207 201 195 190 196 218 223 224 226 230 229 232 234 235 234 236 239 242 245 248 251 253 249 247 247 248 245 244 248 246 241 236 245 245 245 247
160 143 193 254 194 159 146 254 212 212 192 180 185 194 199 203 205 201 197 203 210 214 218 222 226 230 234 235 237 239 240 242 246 247 244 240 242 243 242 243 245 247 246 247 245 245 243 245 245
198 148 176 193 238 270 144 258 259 160 147 149 166 177 190 201 202 196 198 201 206 216 224 228 228 229 231 234 235 237 240 240 241 243 242 242 240 238 241 244 245 247 246 250 248 252 246 244 242